Change the Weather History Date:

Wednesday, January 9, 2013

  Actual Average Record
Temperature  
Mean Temperature 90 °F -  
Max Temperature 100 °F 97 °F 107 °F (2009)
Min Temperature 81 °F 78 °F 73 °F (2012)
Cooling Degree Days 26    
Growing Degree Days 40 (Base 50)    
Moisture  
Dew Point 78 °F    
Average Humidity 66    
Maximum Humidity 89    
Minimum Humidity 37    
Precipitation  
Precipitation 0.00 in 0.10 in - ()
Sea Level Pressure  
Sea Level Pressure 29.58 in    
Wind  
Wind Speed 11 mph ()    
Max Wind Speed 22 mph    
Max Gust Speed -    
Visibility 11.9 miles    
Events      
Averages and records for this station are not official NWS values.
T = Trace of Precipitation, MM = Missing Value Source: Averaged Metar Reports

Daily Weather History Graph

Daily Weather History Graph

Search for Another Location

Airport or City:

Trip Planner

Search our weather history database for the weather conditions in past years. The results will help you decide how hot, cold, wet, or windy it might be!

Date:

Astronomy

Jan. 09, 2013 Rise Set
Actual Time 5:33 AM AWST 6:51 PM AWST
Civil Twilight 5:09 AM AWST 7:15 PM AWST
Nautical Twilight 4:40 AM AWST 7:44 PM AWST
Astronomical Twilight 4:10 AM AWST 8:14 PM AWST
Moon 2:39 AM AWST (1/9) 4:15 PM AWST (1/9)
Length of Visible Light 14h 06m
Length of Day
13h 17m
Waning Crescent, 10% of the Moon is Illuminated
Jan 9
Waning Crescent
Jan 12
New
Jan 19
First Quarter
Jan 27
Full
Feb 3
Last Quarter

Hourly Weather History & Observations

Time (AWST) Temp. Heat Index Dew Point Humidity Pressure Visibility Wind Dir Wind Speed Gust Speed Precip Events Conditions
12:00 AM 88 °F - 80 °F 73% 29.67 in - West 9.2 mph - -  
12:00 AM 87.8 °F 104.9 °F 80.6 °F 79% 29.65 in - West 9.2 mph - N/A   Scattered Clouds
12:19 AM 87.8 °F 104.9 °F 80.6 °F 79% 29.59 in - West 15.0 mph - N/A   Scattered Clouds
12:30 AM 87.8 °F 104.9 °F 80.6 °F 79% 29.59 in - West 17.3 mph - N/A   Scattered Clouds
1:00 AM 86.0 °F 99.3 °F 78.8 °F 79% 29.56 in - WSW 17.3 mph - N/A   Unknown
1:30 AM 86.0 °F 99.3 °F 78.8 °F 79% 29.59 in - WSW 15.0 mph - N/A   Unknown
1:57 AM 86.0 °F 99.3 °F 78.8 °F 79% 29.65 in - ESE 5.8 mph - N/A   Unknown
2:00 AM 85 °F - 78 °F 76% 29.67 in - East 6.9 mph - -  
2:05 AM 86.0 °F 99.3 °F 78.8 °F 79% 29.68 in - East 20.7 mph - N/A   Scattered Clouds
2:30 AM 87.8 °F 102.5 °F 78.8 °F 75% 29.65 in - ESE 11.5 mph - N/A   Scattered Clouds
3:00 AM 85 °F - 78 °F 73% 29.62 in - West 11.5 mph - -  
3:00 AM 86.0 °F 96.9 °F 77.0 °F 74% 29.62 in - West 11.5 mph - N/A   Unknown
3:30 AM 86.0 °F 96.9 °F 77.0 °F 74% 29.56 in - WNW 11.5 mph - N/A   Unknown
4:00 AM 84.2 °F 94.1 °F 77.0 °F 79% 29.56 in - WNW 9.2 mph - N/A   Unknown
4:30 AM 84.2 °F 94.1 °F 77.0 °F 79% 29.56 in - North - - N/A   Unknown
5:00 AM 83 °F - 77 °F 78% 29.59 in - West 9.2 mph - -  
5:00 AM 82.4 °F 90.9 °F 77.0 °F 84% 29.59 in - West 9.2 mph - N/A   Unknown
5:30 AM 82.4 °F 90.9 °F 77.0 °F 84% 29.59 in - WSW 6.9 mph - N/A   Unknown
6:00 AM 83 °F - 78 °F 82% 29.64 in 19 mi SW 6.9 mph - -   Partly Cloudy
6:00 AM 82.4 °F 92.4 °F 78.8 °F 89% 29.62 in 6.2 mi SW 6.9 mph - N/A   Partly Cloudy
6:30 AM 86.0 °F 99.3 °F 78.8 °F 79% 29.65 in 6.2 mi South 10.4 mph - N/A   Partly Cloudy
7:00 AM 87.8 °F 99.7 °F 77.0 °F 70% 29.65 in 6.2 mi South 10.4 mph - N/A   Partly Cloudy
7:30 AM 89.6 °F 102.2 °F 77.0 °F 66% 29.65 in 6.2 mi South 6.9 mph - N/A   Partly Cloudy
8:00 AM 92 °F - 75 °F 49% 29.64 in - West 6.9 mph - -  
8:00 AM 91.4 °F 102.5 °F 75.2 °F 59% 29.62 in 6.2 mi West 6.9 mph - N/A   Partly Cloudy
8:30 AM 93.2 °F 105.0 °F 75.2 °F 56% 29.62 in - West 5.8 mph - N/A   Clear
9:00 AM 95 °F - 75 °F 44% 29.63 in 19 mi West 2.3 mph - -   Partly Cloudy
9:00 AM 95.0 °F 107.4 °F 75.2 °F 53% 29.62 in - West 2.3 mph - N/A   Clear
9:30 AM 95.0 °F 107.4 °F 75.2 °F 53% 29.62 in - North 6.9 mph - N/A   Clear
10:00 AM 96.8 °F 112.2 °F 77.0 °F 53% 29.62 in - NNE 9.2 mph - N/A   Unknown
10:30 AM 98.6 °F 114.4 °F 77.0 °F 50% 29.59 in - North 12.7 mph - N/A   Clear
11:00 AM 96 °F - 76 °F 44% 29.61 in - North 13.8 mph - -  
11:00 AM 95.0 °F 109.7 °F 77.0 °F 56% 29.59 in - North 13.8 mph - N/A   Clear
11:30 AM 96.8 °F 112.2 °F 77.0 °F 53% 29.59 in - North 13.8 mph - N/A   Clear
12:00 PM 99 °F - 75 °F 37% 29.59 in 19 mi North 16.1 mph - -   Partly Cloudy
12:00 PM 98.6 °F 111.7 °F 75.2 °F 47% 29.59 in - North 16.1 mph - N/A   Clear
12:30 PM 100.4 °F 113.6 °F 75.2 °F 44% 29.56 in - North 12.7 mph - N/A   Unknown
1:00 PM 98.6 °F 114.4 °F 77.0 °F 50% 29.56 in - North 17.3 mph - N/A   Clear
1:30 PM 96.8 °F 107.3 °F 73.4 °F 47% 29.53 in - North 17.3 mph - N/A   Clear
2:00 PM 95 °F - 78 °F 48% 29.55 in - North 19.6 mph - -  
2:00 PM 95.0 °F 109.7 °F 77.0 °F 56% 29.53 in - North 19.6 mph - N/A   Clear
2:30 PM 95.0 °F 112.2 °F 78.8 °F 59% 29.53 in - North 20.7 mph - N/A   Clear
3:00 PM 95 °F - 78 °F 48% 29.52 in 19 mi North 20.7 mph - -   Partly Cloudy
3:00 PM 95.0 °F 109.7 °F 77.0 °F 56% 29.50 in - North 20.7 mph - N/A   Clear
3:30 PM 95.0 °F 109.7 °F 77.0 °F 56% 29.50 in - North 21.9 mph - N/A   Unknown
4:00 PM 95.0 °F 112.2 °F 78.8 °F 59% 29.50 in - North 19.6 mph - N/A   Unknown
4:30 PM 95.0 °F 109.7 °F 77.0 °F 56% 29.50 in - North 19.6 mph - N/A   Unknown
5:00 PM 94 °F - 79 °F 54% 29.50 in - North 19.6 mph - -  
5:00 PM 93.2 °F 110.2 °F 78.8 °F 63% 29.50 in - North 19.6 mph - N/A   Unknown
5:30 PM 93.2 °F 110.2 °F 78.8 °F 63% 29.47 in - North 18.4 mph - N/A   Unknown
6:00 PM 90 °F - 79 °F 64% 29.51 in - North 16.1 mph - -  
6:00 PM 89.6 °F 104.7 °F 78.8 °F 70% 29.50 in - North 16.1 mph - N/A   Unknown
6:30 PM 89.6 °F 104.7 °F 78.8 °F 70% 29.50 in - North 15.0 mph - N/A   Unknown
7:00 PM 89.6 °F 102.2 °F 77.0 °F 66% 29.53 in - North 10.4 mph - N/A   Unknown
7:30 PM 89.6 °F 102.2 °F 77.0 °F 66% 29.53 in - North 11.5 mph - N/A   Unknown
8:00 PM 89.6 °F 104.7 °F 78.8 °F 70% 29.53 in - North 13.8 mph - N/A   Unknown
8:30 PM 87.8 °F 102.5 °F 78.8 °F 75% 29.56 in - North 9.2 mph - N/A   Unknown
9:00 PM 89 °F - 78 °F 64% 29.58 in - North 10.4 mph - -  
9:00 PM 89.6 °F 104.7 °F 78.8 °F 70% 29.56 in - North 10.4 mph - N/A   Unknown
9:30 PM 87.8 °F 102.5 °F 78.8 °F 75% 29.59 in - North 8.1 mph - N/A   Unknown
10:00 PM 87.8 °F 102.5 °F 78.8 °F 75% 29.59 in - North 9.2 mph - N/A   Unknown
10:30 PM 87.8 °F 102.5 °F 78.8 °F 75% 29.56 in - North 8.1 mph - N/A   Unknown
11:00 PM 87 °F - 78 °F 68% 29.58 in - WNW 6.9 mph - -  
11:00 PM 86.0 °F 99.3 °F 78.8 °F 79% 29.56 in - WNW 6.9 mph - N/A   Unknown
11:30 PM 86.0 °F 99.3 °F 78.8 °F 79% 29.56 in - WSW 6.9 mph - N/A   Unknown